Flag for Nepal Weather past 2 weeks in Kathmandu, Nepal

Now
72 °F

Partly cloudy.


Feels Like: 67 °F
Forecast: 63 / 76 °F
Wind: No wind

Location: Kathmandu Airport

Current Time: Aug 21, 2014 at 10:24:36 PM

Latest Report: Aug 21, 2014 at 9:35 PM


Visibility: 4 mi

Pressure: 29.92 "Hg

Humidity: 94%

Dew point: 70 °F

Location of KathmanduLocation

Historic Weather in Kathmandu — Graph

°F

Kathmandu temperature yesterday

Maximum temperature yesterday: 79 °F (at 1:35 PM)
Minimum temperature yesterday: 70 °F (at 12:35 AM)
Average temperature yesterday: 73 °F

Past Weeks' High & Low Weather Summary

 TemperatureHumidityPressure
High82 °F (Aug 8, 1:35 PM)100% (Aug 8, 12:35 AM)30.04 "Hg (Aug 8, 12:35 AM)
Low66 °F (Aug 16, 5:35 AM)62% (Aug 18, 1:35 PM)29.56 "Hg (Aug 14, 8:35 PM)
Average73 °F87%29.85 "Hg
* Reported Aug 6 8:35 PM — Aug 21 8:35 PM, Kathmandu, Weather by CustomWeather, © 2014

Note: Actual official high and low records may vary slightly from our data, if they occured in-between our weather recording intervals... More about our weather records

Advertising

Kathmandu weather history for previous 24 hours

 ConditionsComfort  
Time TempWeatherWind HumidityBarometerVisibility
8:35 PM
Aug 21
72 °FPartly cloudy.No wind94%29.89 "Hg4 mi
7:35 PM72 °FPartly cloudy.No wind94%29.86 "Hg4 mi
6:35 PM73 °FSprinkles. Broken clouds.6 mph89%29.83 "Hg5 mi
5:35 PM75 °FScattered clouds.3 mph83%29.83 "Hg5 mi
4:35 PM75 °FRain. Broken clouds.3 mph83%29.80 "Hg4 mi
3:35 PM73 °FRain. Broken clouds.5 mph94%29.83 "Hg4 mi
2:35 PM75 °FBroken clouds.7 mph83%29.86 "Hg4 mi
1:35 PM77 °FBroken clouds.9 mph79%29.89 "Hg4 mi
12:35 PM77 °FLight rain. More clouds than sun.3 mph79%29.89 "Hg4 mi
11:35 AM79 °FBroken clouds.6 mph74%29.92 "Hg5 mi
10:35 AM77 °FBroken clouds.No wind79%29.92 "Hg4 mi
9:35 AM75 °FBroken clouds.No wind83%29.92 "Hg4 mi
8:35 AM73 °FFog.No wind89%29.92 "Hg3 mi
7:35 AM72 °FBroken clouds.No wind94%29.89 "Hg4 mi
6:35 AM70 °FBroken clouds.No wind94%29.89 "Hg4 mi
5:35 AM70 °FPartly cloudy.No wind94%29.89 "Hg4 mi
4:35 AM70 °FPartly cloudy.No wind94%29.86 "Hg4 mi
3:35 AM70 °FPartly cloudy.No wind94%29.86 "Hg4 mi
2:35 AM70 °FPartly cloudy.No wind94%29.86 "Hg4 mi
1:35 AM70 °FPartly cloudy.No wind94%29.89 "Hg4 mi
12:35 AM70 °FPartly cloudy.No wind100%29.92 "Hg4 mi
11:35 PM
Aug 20
70 °FFog.No wind100%29.92 "Hg3 mi
10:35 PM70 °FFog.No wind100%29.95 "Hg3 mi
Weather by CustomWeather, © 2014

See weather overviewHow to use our weather pages